Liverpool John Lennon Airport

Airport
ICAO code: 
EGGP
IATA Code: 
LPL
Summary
ICAO Region: 
EUR
Territory: 
Location: 
Speke, Liverpool, England
Serving: 
Liverpool
Elevation: 
80 ft
Coordinates: 
Aerial View: 
53° 20' 3.81" N, 2° 51' 10.02" W
Metar
Observation
EGGP 200950Z 35006KT 9999 BKN045 04/M01 Q1039
Station
Liverpool Airport
Date/Time
2022-01-20 09:50:00
Wind direction
350°
Wind speed
06 kts
Lowest cloud amount
broken clouds
Temperature
4°C
Dew point
-1°C
Humidity
69%
QNH
1039 hPa
Weather condition
n/a

Description

International airport serving Liverpool and environs.

Climatology

Temperate Marine climate/Oceanic climate (Köppen climate classification Cfb). Moderately cool summer and comparatively warm winter with a temperature range of only 14°C. Prevailing south-westerly winds from the Atlantic Ocean.

Runways

Designator Length Width Surface Rops
9/27 2286 46 ASP Yes/Yes
Airport map: 
Aerial View: 

Accidents and Serious Incidents at or in the vicinity of EGGP

SKYbrary Partners:

Safety knowledge contributed by: